Regional Weather Roundup
Issued by NWS

Home | Current Version | Previous Version | Graphics & Text | Print | Product List | Glossary On
Versions: 1 2 3 4 5 6 7 8 9 10 11 12 13 14 15 16 17 18 19 20 21 22 23 24 25 26 27 28 29 30 31 32 33 34 35 36 37 38 39 40 41 42 43 44 45 46 47 48 49 50
000
ASUS43 KMPX 272210
RWRMN
WEATHER ROUNDUP FOR MINNESOTA
NATIONAL WEATHER SERVICE TWIN CITIES/CHANHASSEN MN
500 PM CDT THU APR 27 2017


NOTE: "FAIR" INDICATES FEW OR NO CLOUDS BELOW 12,000 FEET WITH NO
SIGNIFICANT WEATHER AND/OR OBSTRUCTIONS TO VISIBILITY. N/A MEANS
CURRENT SKY AND/OR WEATHER CONDITIONS ARE NOT AVAILABLE.

MNZ060>063-068>070-272300-
   Twin Cities Metro

CITY           SKY/WX    TMP DP  RH WIND       PRES   REMARKS
TWIN CITIES    CLOUDY    35  24  64 NW13      29.64R WCI  26
ST PAUL        CLOUDY    34  25  69 NW15      29.65R WCI  24
CRYSTAL        CLOUDY    33  22  63 W12       29.63R WCI  24
BLAINE         CLOUDY    34  27  75 W14G20    29.63R WCI  24
LAKEVILLE      CLOUDY    34  27  75 W12G20    29.63R WCI  25
EDEN PRAIRIE   CLOUDY    36  25  64 NW12G20   29.63R
SOUTH ST PAUL  CLOUDY    35  25  68 W9G18     29.63R WCI  28
LAKE ELMO      CLOUDY    34  27  75 NW14G20   29.64R WCI  24
$$
MNZ001>005-007-008-013>017-022>024-027-028-272300-
   Northwest Minnesota

CITY           SKY/WX    TMP DP  RH WIND       PRES   REMARKS
BEMIDJI        CLOUDY    28  21  75 NW13      29.61R WCI  18
HALLOCK        CLOUDY    43  28  56 N20       29.65S
ROSEAU         CLOUDY    34  27  75 N9        29.65S WCI  26
WARROAD        CLOUDY    30  25  80 N13G18    29.64S WCI  20
THIEF RVR FALL CLOUDY    31  24  75 NE10      29.66S WCI  22
CROOKSTON      CLOUDY    37  28  70 NE6       29.67S
FOSSTON        CLOUDY    28  21  74 N13       29.65S WCI  18
DETROIT LAKES  CLOUDY    32  27  80 NW14      29.66R WCI  22
MOORHEAD       MOSUNNY   37  28  70 N16       29.68S
PARK RAPIDS    CLOUDY    31  19  61 NW15      29.61R WCI  20
MAHNOMEN       CLOUDY    31  25  79 N3        29.65S
$$
MNZ006-009>011-018-025>026-272300-
   North Central Minnesota

CITY           SKY/WX    TMP DP  RH WIND       PRES   REMARKS
BAUDETTE       CLOUDY    28  19  69 N16       29.60S WCI  16
FLAG ISLAND    CLOUDY    28  21  74 N18       29.62F WCI  16
INTL FALLS     CLOUDY    29  19  66 N13       29.56S WCI  19
WASKISH        CLOUDY    28  21  74 NW10G17   29.61S WCI  19
BIG FORK       CLOUDY    28  18  64 NW7       29.57S WCI  21
LONGVILLE      CLOUDY    28  21  74 NW7       29.59R WCI  21
GRAND RAPIDS   CLOUDY    28  19  69 NW16G22   29.58S WCI  16
CRANE LAKE     CLOUDY    27  18  69 NW8       29.56R WCI  18
ORR            CLOUDY    27  18  69 NW12G17   29.52R WCI  16
COOK           CLOUDY    27  18  69 NW9       29.54S WCI  17
WALKER         CLOUDY    28  21  74 NW15      29.60R WCI  17
$$
MNZ012-019>021-037-272300-
   Northeast Minnesota

CITY           SKY/WX    TMP DP  RH WIND       PRES   REMARKS
DULUTH         CLOUDY    29  20  69 NW10      29.53R WCI  20
ELY            CLOUDY    27  18  69 NW10      29.50S WCI  17
HIBBING        CLOUDY    27  19  72 NW12      29.54R WCI  17
EVELETH        CLOUDY    29  18  63 NW16      29.54R WCI  17
DULUTH HARBOR  CLOUDY    34  23  64 W15       29.57S WCI  24
TWO HARBORS    CLOUDY    34  23  64 W9        29.51R WCI  26
SILVER BAY     CLOUDY    28  21  74 W7        29.49R WCI  21
GRAND MARAIS     N/A     29  22  75 VRB3      29.49R
G MARAIS ARPRT LGT SNOW  21  16  79 NW3       29.42R
$$
MNZ029>031-032-039>041-046>048-054>057-064-272300-
   West Central Minnesota

CITY           SKY/WX    TMP DP  RH WIND       PRES   REMARKS
FERGUS FALLS   CLOUDY    34  25  69 N18G28    29.68S WCI  23
WHEATON        CLOUDY    36  27  69 NW14      29.71S
MORRIS         CLOUDY    36  27  69 N18       29.67F
ALEXANDRIA     CLOUDY    32  24  72 NW10      29.65R WCI  24
ELBOW LAKE     CLOUDY    32  26  77 W16       29.68R WCI  21
WADENA         CLOUDY    28  25  86 NW14      29.62S WCI  17
GLENWOOD       CLOUDY    32  25  74 W16G23    29.66R WCI  21
APPLETON       CLOUDY    37  27  65 NW14G20   29.69S
BENSON         CLOUDY    36  23  60 N20       29.70R
ORTONVILLE     CLOUDY    37  27  65 MISG      29.69S
MADISON        CLOUDY    41  28  60 NW15G21   29.70R
WILLMAR        CLOUDY    34  28  80 NW15G21   29.68R WCI  24
$$
MNZ033>034-036-042>043-049>051-058-059-272300-
   Central Minnesota

CITY           SKY/WX    TMP DP  RH WIND       PRES   REMARKS
ST CLOUD       CLOUDY    32  24  72 NW10      29.63S WCI  24
SAUK CENTRE    CLOUDY    32  23  70 NW17      29.65R WCI  21
PAYNESVILLE    CLOUDY    33  25  73 NW12G17   29.65S WCI  24
AITKIN         CLOUDY    32  21  64 NW7       29.58S WCI  26
PINE RIVER     CLOUDY    28  21  74 NW7       29.64S WCI  21
BRAINERD       CLOUDY    30  22  72 NW10      29.61R WCI  21
STAPLES        CLOUDY    28  23  80 NW13      29.62S WCI  18
LONG PRAIRIE   CLOUDY    32  23  69 W14G20    29.64R WCI  22
LITTLE FALLS   CLOUDY    32  23  69 NW9       29.63S WCI  24
LITCHFIELD     CLOUDY    36  27  69 NW15G22   29.65R
BUFFALO        CLOUDY    32  24  73 W10       29.65S WCI  24
MAPLE LAKE     CLOUDY    33  27  80 W7        29.65S WCI  27
HUTCHINSON     CLOUDY    35  27  73 NW17      29.65S WCI  25
$$
MNZ037-044-045-052-053-272300-
   East Central Minnesota

CITY           SKY/WX    TMP DP  RH WIND       PRES   REMARKS
PRINCETON      CLOUDY    34  25  69 W10G16    29.64R WCI  26
MORA           CLOUDY    32  23  69 NW14      29.63R WCI  22
CAMBRIDGE      CLOUDY    34  21  60 W7G17     29.62R WCI  28
RUSH CITY      CLOUDY    31  24  73 W9G17     29.63R WCI  23
MOOSE LAKE     CLOUDY    32  21  64 NW8       29.57R WCI  25
HINCKLEY       CLOUDY    32  23  69 W10       29.61R WCI  24
CLOQUET        CLOUDY    28  18  64 NW9G16    29.55R WCI  20
MCGREGOR       CLOUDY    30  23  74 NW10      29.59R WCI  21
$$
MNZ071>073-080-081-089-090-097-098-272300-
   Southwest Minnesota

CITY           SKY/WX    TMP DP  RH WIND       PRES   REMARKS
MONTEVIDEO     CLOUDY    36  27  69 N15G21    29.69R
GRANITE FALLS  CLOUDY    37  28  69 NW20G25   29.71R
CANBY          MOSUNNY   42  28  58 NW13G22   29.70R
MARSHALL       PTSUNNY   39  28  64 NW16G25   29.68F
REDWOOD FALLS  CLOUDY    36  24  62 NW14G22   29.68R
OLIVIA         CLOUDY    34  28  80 NW16G24   29.67R WCI  23
PIPESTONE      MOSUNNY   45  27  49 N12G21    29.66S
WINDOM         SUNNY     37  30  75 NW17      29.68R
WORTHINGTON    CLOUDY    40  31  70 NW13      29.68S
JACKSON        CLOUDY    37  30  75 NW18      29.67S
TRACY          CLOUDY    39  31  73 NW14G22   29.68S
SLAYTON        CLOUDY    39  31  71 NW12G17   29.67S
$$
MNZ065>067-074>077-082>085-091>093-272300-
   South Central Minnesota

CITY           SKY/WX    TMP DP  RH WIND       PRES   REMARKS
MANKATO        CLOUDY    34  26  72 NW18      29.67R WCI  23
NEW ULM        CLOUDY    36  27  69 NW20      29.67R
ST JAMES       CLOUDY    36  28  75 NW20      29.69R
FAIRMONT       CLOUDY    36  27  69 NW17      29.69R
GLENCOE        CLOUDY    34  30  85 NW15G22   29.64S WCI  24
FARIBAULT      CLOUDY    36  28  75 W15G22    29.65R
OWATONNA       CLOUDY    36  27  69 W18       29.65R
WASECA         CLOUDY    34  28  80 W18       29.67R WCI  23
ALBERT LEA     CLOUDY    34  27  75 W14G20    29.66R WCI  24
$$
MNZ078>079-086>088-094>096-272300-
   Southeast Minnesota

CITY           SKY/WX    TMP DP  RH WIND       PRES   REMARKS
ROCHESTER      CLOUDY    35  30  82 W18G25    29.64R WCI  24
RED WING       CLOUDY    37  25  60 W10G20    29.62S
STANTON        CLOUDY    36  28  71 W14       29.63R
DODGE CENTER   CLOUDY    34  28  80 W18       29.63S WCI  23
WINONA         CLOUDY    37  32  81 NW12G18   29.64R
AUSTIN         CLOUDY    36  28  75 W8        29.65R
PRESTON        CLOUDY    34  30  86 W16G22    29.65R WCI  24
$$
ABBREVIATIONS USED IN REMARKS
   TC - TEMPERATURES IN CELSIUS
  WCI - WIND CHILL INDEX
   HX - HEAT INDEX
  VSB - VISIBILITY
$$



USA.gov is the U.S. government's official web portal to all federal, state and local government web resources and services.